Overview Statistics Trail Chart Weather Telemetry Raw packets
 

This is the latest recevied weather packets stored in our database for station/object KO6HRZ. If no packets are shown the sender has not sent any weather packets the latest 10 day(s).

<< 10 11 12 13 14 15 16 >>
Time Temp. Humidity Pressure Rain* Wind** Luminosity Snow
1788505426 17.22° C 92% 1010.1 hPa 1.78 mm - 0 W/m² -
1788504824 17.22° C 90% 1010.3 hPa 0.51 mm - 0 W/m² -
1788504220 17.78° C 88% 1010.3 hPa 0 mm - 0 W/m² -
1788503617 17.78° C 85% 1010.2 hPa 0 mm - 0 W/m² -
1788503014 18.33° C 84% 1010.2 hPa 0 mm - 0 W/m² -
1788502411 18.33° C 84% 1010.1 hPa 0 mm - 0 W/m² -
1788501809 18.33° C 83% 1010.2 hPa 0 mm - 0 W/m² -
1788501205 18.89° C 82% 1010 hPa 0 mm - 0 W/m² -
1788500602 18.89° C 82% 1010.1 hPa 0 mm - 0 W/m² -
1788500003 18.89° C 81% 1010.3 hPa 0 mm - 0 W/m² -
1788499401 18.89° C 81% 1010.2 hPa 0 mm - 0 W/m² -
1788498798 18.89° C 81% 1010.1 hPa 0 mm - 0 W/m² -
1788498196 18.89° C 81% 1010.3 hPa 0 mm - 0 W/m² -
1788497596 19.44° C 80% 1010.1 hPa 0 mm - 0 W/m² -
1788496994 19.44° C 80% 1010.2 hPa 0 mm - 0 W/m² -
1788496391 19.44° C 80% 1010 hPa 0 mm - 0 W/m² -
1788495788 19.44° C 80% 1010.2 hPa 0 mm - 0 W/m² -
1788495184 19.44° C 81% 1010.3 hPa 0 mm - 0 W/m² -
1788494581 19.44° C 82% 1009.9 hPa 0 mm - 0 W/m² -
1788493979 19.44° C 82% 1010.1 hPa 0 mm - 0 W/m² -
1788493379 20° C 81% 1009.8 hPa 0 mm - 0 W/m² -
1788492777 19.44° C 81% 1010.2 hPa 0 mm - 0 W/m² -
1788492178 19.44° C 81% 1009.8 hPa 0 mm - 0 W/m² -
1788491574 20° C 80% 1009.6 hPa 0 mm - 0 W/m² -
1788490971 20° C 80% 1009.6 hPa 0 mm - 0 W/m² -

* Rain latest hour (hover to see other rain measurements)
** Current wind speed in m/s (hover to see current wind gust speed)